This is the latest recevied weather packets stored in our database for station/object W1REE. If no packets are shown the sender has not sent any weather packets the latest 10 day(s).
| Time | Temp. | Humidity | Pressure | Rain* | Wind** | Luminosity | Snow |
|---|---|---|---|---|---|---|---|
| 1777582800 | 5° C | 74% | 1021.8 hPa | 0 mm | - | 96 W/m² | - |
| 1777582496 | 5° C | 75% | 1021.8 hPa | 0 mm | - | 87 W/m² | - |
| 1777582191 | 5.56° C | 76% | 1021.7 hPa | 0 mm | - | 89 W/m² | - |
| 1777581889 | 5° C | 74% | 1021.8 hPa | 0 mm | - | 99 W/m² | - |
| 1777581584 | 5.56° C | 74% | 1021.6 hPa | 0 mm | - | 87 W/m² | - |
| 1777581279 | 5.56° C | 74% | 1021.8 hPa | 0 mm | - | 95 W/m² | - |
| 1777580974 | 5.56° C | 75% | 1021.7 hPa | 0 mm | - | 139 W/m² | - |
| 1777580673 | 5.56° C | 73% | 1021.7 hPa | 0 mm | - | 112 W/m² | - |
| 1777580369 | 5.56° C | 76% | 1021.7 hPa | 0 mm | - | 130 W/m² | - |
| 1777580066 | 5.56° C | 76% | 1021.8 hPa | 0 mm | - | 148 W/m² | - |
| 1777579762 | 5.56° C | 76% | 1021.9 hPa | 0 mm | - | 202 W/m² | - |
| 1777579460 | 5° C | 78% | 1021.9 hPa | 0 mm | - | 272 W/m² | - |
| 1777579156 | 5° C | 76% | 1021.8 hPa | 0 mm | - | 262 W/m² | - |
| 1777578851 | 5° C | 80% | 1022 hPa | 0 mm | - | 198 W/m² | - |
| 1777578546 | 5° C | 77% | 1022.2 hPa | 0 mm | - | 169 W/m² | - |
| 1777578241 | 5° C | 75% | 1021.9 hPa | 0 mm | - | 141 W/m² | - |
| 1777577937 | 5° C | 73% | 1021.9 hPa | 0 mm | - | 121 W/m² | - |
| 1777577632 | 5° C | 72% | 1021.8 hPa | 0 mm | - | 111 W/m² | - |
| 1777577330 | 5° C | 73% | 1021.9 hPa | 0 mm | - | 97 W/m² | - |
| 1777577026 | 5° C | 73% | 1021.9 hPa | 0 mm | - | 124 W/m² | - |
| 1777576723 | 5° C | 73% | 1021.8 hPa | 0 mm | - | 117 W/m² | - |
| 1777576422 | 5° C | 74% | 1021.8 hPa | 0 mm | - | 92 W/m² | - |
| 1777576119 | 5.56° C | 74% | 1021.9 hPa | 0 mm | - | 89 W/m² | - |
| 1777575814 | 5° C | 73% | 1022 hPa | 0 mm | - | 89 W/m² | - |
| 1777575512 | 5° C | 72% | 1021.9 hPa | 0 mm | - | 81 W/m² | - |
* Rain latest hour (hover to see other rain measurements)
** Current wind speed in m/s (hover to see current wind gust speed)